| time (UTC) | temp F | wind direction | speed MPH | gust MPH | rain 1hr in | rain 24hr in | rain mn in | humidity % | barometer mb |
| 20260505124644 | 54 | 96 | 2.0 | 6.0 | 0.00 | 0.00 | 0.00 | 65 | 1007.4 |
| 20260505123631 | 54 | 82 | 4.0 | 8.0 | 0.00 | 0.00 | 0.00 | 66 | 1007.3 |
| 20260505122619 | 54 | 11 | 1.0 | 3.0 | 0.00 | 0.00 | 0.00 | 66 | 1007.3 |
| 20260505121626 | 53 | 9 | 0.0 | 2.0 | 0.00 | 0.00 | 0.00 | 66 | 1007.3 |
| 20260505120616 | 53 | 9 | 3.0 | 6.0 | 0.00 | 0.00 | 0.00 | 67 | 1007.2 |
| 20260505115615 | 53 | 308 | 1.0 | 5.0 | 0.00 | 0.00 | 0.00 | 65 | 1007.1 |
| 20260505114624 | 54 | 21 | 3.0 | 6.0 | 0.00 | 0.00 | 0.00 | 60 | 1007.1 |
| 20260505113632 | 56 | 296 | 1.0 | 4.0 | 0.00 | 0.00 | 0.00 | 57 | 1006.9 |
| 20260505112623 | 57 | 74 | 1.0 | 4.0 | 0.00 | 0.00 | 0.00 | 56 | 1006.8 |
| 20260505111652 | 57 | 71 | 2.0 | 4.0 | 0.00 | 0.00 | 0.00 | 55 | 1006.7 |
| 20260505110616 | 57 | 65 | 3.0 | 4.0 | 0.00 | 0.00 | 0.00 | 54 | 1006.6 |
| 20260505101620 | 57 | 224 | 0.0 | 3.0 | 0.00 | 0.00 | 0.00 | 51 | 1006.5 |
| 20260505100613 | 57 | 224 | 0.0 | 2.0 | 0.00 | 0.00 | 0.00 | 52 | 1006.4 |
| 20260505095612 | 57 | 224 | 0.0 | 1.0 | 0.00 | 0.00 | 0.00 | 52 | 1006.4 |
| 20260505094640 | 58 | 224 | 0.0 | 5.0 | 0.00 | 0.00 | 0.00 | 49 | 1006.2 |
| 20260505093647 | 58 | 180 | 3.0 | 7.0 | 0.00 | 0.00 | 0.00 | 49 | 1006.2 |
| 20260505092612 | 57 | 165 | 1.0 | 5.0 | 0.00 | 0.00 | 0.00 | 50 | 1006.2 |
| 20260505091620 | 57 | 207 | 0.0 | 2.0 | 0.00 | 0.00 | 0.00 | 49 | 1006.2 |
| 20260505090623 | 58 | 207 | 1.0 | 4.0 | 0.00 | 0.00 | 0.00 | 49 | 1006.2 |
| 20260505085620 | 59 | 42 | 1.0 | 3.0 | 0.00 | 0.00 | 0.00 | 48 | 1006.3 |
| 20260505084628 | 59 | 187 | 2.0 | 4.0 | 0.00 | 0.00 | 0.00 | 46 | 1006.4 |
| 20260505083639 | 59 | 176 | 3.0 | 7.0 | 0.00 | 0.00 | 0.00 | 46 | 1006.3 |
| 20260505082625 | 59 | 186 | 3.0 | 6.0 | 0.00 | 0.00 | 0.00 | 47 | 1006.3 |
| 20260505081612 | 59 | 179 | 4.0 | 8.0 | 0.00 | 0.00 | 0.00 | 47 | 1006.3 |
| 20260505080619 | 59 | 188 | 6.0 | 9.0 | 0.00 | 0.00 | 0.00 | 48 | 1006.2 |
| 20260505075621 | 58 | 188 | 4.0 | 11.0 | 0.00 | 0.00 | 0.00 | 48 | 1006.2 |
| 20260505074629 | 58 | 86 | 2.0 | 5.0 | 0.00 | 0.00 | 0.00 | 46 | 1006.3 |
| 20260505073615 | 58 | 123 | 1.0 | 4.0 | 0.00 | 0.00 | 0.00 | 45 | 1006.4 |
| 20260505072620 | 57 | 69 | 0.0 | 3.0 | 0.00 | 0.00 | 0.00 | 47 | 1006.5 |
| 20260505071614 | 57 | 70 | 1.0 | 3.0 | 0.00 | 0.00 | 0.00 | 46 | 1006.5 |
| 20260505070625 | 56 | 69 | 1.0 | 4.0 | 0.00 | 0.00 | 0.00 | 45 | 1006.6 |
| 20260505065625 | 57 | 69 | 0.0 | 1.0 | 0.00 | 0.00 | 0.00 | 43 | 1006.6 |
| 20260505064614 | 59 | 69 | 2.0 | 4.0 | 0.00 | 0.00 | 0.00 | 39 | 1006.6 |
| 20260505063623 | 61 | 284 | 0.0 | 2.0 | 0.00 | 0.00 | 0.00 | 39 | 1006.6 |
| 20260505062613 | 60 | 18 | 0.0 | 6.0 | 0.00 | 0.00 | 0.00 | 39 | 1006.4 |
| 20260505061642 | 59 | 343 | 1.0 | 5.0 | 0.00 | 0.00 | 0.00 | 40 | 1006.5 |
| 20260505060636 | 60 | 297 | 2.0 | 8.0 | 0.00 | 0.00 | 0.00 | 39 | 1006.1 |
| 20260505055630 | 63 | 284 | 4.0 | 14.0 | 0.00 | 0.00 | 0.00 | 39 | 1005.9 |
| 20260505054622 | 63 | 171 | 7.0 | 17.0 | 0.00 | 0.00 | 0.00 | 41 | 1005.5 |
| 20260505053629 | 64 | 205 | 11.0 | 18.0 | 0.00 | 0.00 | 0.00 | 38 | 1005.6 |
| 20260505052617 | 65 | 189 | 6.0 | 11.0 | 0.00 | 0.00 | 0.00 | 30 | 1005.4 |
| 20260505051625 | 65 | 164 | 6.0 | 10.0 | 0.00 | 0.00 | 0.00 | 31 | 1005.4 |
| 20260505050617 | 65 | 180 | 7.0 | 11.0 | 0.00 | 0.00 | 0.00 | 31 | 1005.5 |
| 20260505041629 | 67 | 224 | 7.0 | 21.0 | 0.00 | 0.00 | 0.00 | 28 | 1005.2 |
| 20260505040617 | 67 | 217 | 5.0 | 12.0 | 0.00 | 0.00 | 0.00 | 30 | 1005.2 |
| 20260505035615 | 65 | 217 | 3.0 | 9.0 | 0.00 | 0.00 | 0.00 | 33 | 1005.4 |
| 20260505034628 | 65 | 204 | 1.0 | 4.0 | 0.00 | 0.00 | 0.00 | 32 | 1005.5 |
| 20260505033617 | 66 | 204 | 1.0 | 5.0 | 0.00 | 0.00 | 0.00 | 31 | 1005.5 |
| 20260505032624 | 66 | 250 | 1.0 | 2.0 | 0.00 | 0.00 | 0.00 | 30 | 1005.5 |
| 20260505031650 | 66 | 250 | 0.0 | 5.0 | 0.00 | 0.00 | 0.00 | 30 | 1005.5 |
| 20260505030621 | 66 | 258 | 0.0 | 11.0 | 0.00 | 0.00 | 0.00 | 30 | 1005.4 |
| 20260505025617 | 66 | 246 | 1.0 | 6.0 | 0.00 | 0.00 | 0.00 | 30 | 1005.2 |
| 20260505024645 | 65 | 224 | 1.0 | 3.0 | 0.00 | 0.00 | 0.00 | 32 | 1005.0 |
| 20260505023630 | 64 | 355 | 2.0 | 5.0 | 0.00 | 0.00 | 0.00 | 31 | 1004.8 |
| 20260505022616 | 65 | 236 | 0.0 | 7.0 | 0.00 | 0.00 | 0.00 | 31 | 1004.6 |
| 20260505021630 | 68 | 217 | 0.0 | 3.0 | 0.00 | 0.00 | 0.00 | 28 | 1004.2 |
| 20260505020618 | 69 | 117 | 0.0 | 1.0 | 0.00 | 0.00 | 0.00 | 25 | 1004.0 |
| 20260505015617 | 69 | 109 | 2.0 | 5.0 | 0.00 | 0.00 | 0.00 | 24 | 1003.9 |
| 20260505014622 | 70 | 137 | 2.0 | 7.0 | 0.00 | 0.00 | 0.00 | 24 | 1003.9 |
| 20260505013616 | 70 | 107 | 3.0 | 9.0 | 0.00 | 0.00 | 0.00 | 24 | 1004.0 |
| 20260505012626 | 70 | 211 | 6.0 | 19.0 | 0.00 | 0.00 | 0.00 | 23 | 1004.2 |
| 20260505011614 | 70 | 200 | 9.0 | 16.0 | 0.00 | 0.00 | 0.00 | 23 | 1004.3 |
| 20260505010643 | 71 | 231 | 4.0 | 12.0 | 0.00 | 0.00 | 0.00 | 23 | 1004.5 |
| 20260505005644 | 71 | 76 | 5.0 | 9.0 | 0.00 | 0.00 | 0.00 | 22 | 1004.4 |
| 20260505004631 | 71 | 188 | 5.0 | 8.0 | 0.00 | 0.00 | 0.00 | 24 | 1004.4 |
| 20260505003638 | 71 | 118 | 2.0 | 8.0 | 0.00 | 0.00 | 0.00 | 23 | 1004.2 |
| 20260505002624 | 72 | 180 | 4.0 | 9.0 | 0.00 | 0.00 | 0.00 | 23 | 1004.6 |
| 20260505001616 | 71 | 88 | 6.0 | 12.0 | 0.00 | 0.00 | 0.00 | 22 | 1004.2 |
| 20260505000620 | 72 | 90 | 9.0 | 14.0 | 0.00 | 0.00 | 0.00 | 23 | 1004.2 |
| 20260504235617 | 73 | 59 | 5.0 | 13.0 | 0.00 | 0.00 | 0.00 | 23 | 1004.1 |
| 20260504234623 | 74 | 27 | 4.0 | 7.0 | 0.00 | 0.00 | 0.00 | 21 | 1004.2 |
| 20260504233616 | 75 | 360 | 3.0 | 9.0 | 0.00 | 0.00 | 0.00 | 19 | 1004.1 |
| 20260504232626 | 76 | 306 | 3.0 | 9.0 | 0.00 | 0.00 | 0.00 | 17 | 1004.1 |
| 20260504231616 | 77 | 265 | 6.0 | 12.0 | 0.00 | 0.00 | 0.00 | 16 | 1004.1 |
| 20260504230626 | 77 | 168 | 2.0 | 7.0 | 0.00 | 0.00 | 0.00 | 16 | 1004.1 |
| 20260504225631 | 77 | 180 | 5.0 | 11.0 | 0.00 | 0.00 | 0.00 | 16 | 1004.1 |
| 20260504224621 | 77 | 217 | 1.0 | 7.0 | 0.00 | 0.00 | 0.00 | 16 | 1004.2 |
| 20260504223632 | 77 | 227 | 4.0 | 10.0 | 0.00 | 0.00 | 0.00 | 17 | 1004.3 |
| 20260504222622 | 76 | 98 | 3.0 | 9.0 | 0.00 | 0.00 | 0.00 | 16 | 1004.2 |
| 20260504221613 | 78 | 300 | 2.0 | 8.0 | 0.00 | 0.00 | 0.00 | 16 | 1004.6 |
| 20260504220621 | 77 | 211 | 2.0 | 6.0 | 0.00 | 0.00 | 0.00 | 16 | 1004.7 |
| 20260504215619 | 76 | 200 | 4.0 | 11.0 | 0.00 | 0.00 | 0.00 | 18 | 1004.8 |
| 20260504214627 | 76 | 169 | 6.0 | 13.0 | 0.00 | 0.00 | 0.00 | 18 | 1004.9 |
| 20260504213617 | 77 | 160 | 7.0 | 14.0 | 0.00 | 0.00 | 0.00 | 18 | 1005.0 |
| 20260504212644 | 76 | 235 | 7.0 | 13.0 | 0.00 | 0.00 | 0.00 | 19 | 1005.3 |
| 20260504211629 | 75 | 101 | 3.0 | 14.0 | 0.00 | 0.00 | 0.00 | 19 | 1005.4 |
| 20260504210618 | 75 | 175 | 3.0 | 12.0 | 0.00 | 0.00 | 0.00 | 18 | 1005.6 |
| 20260504205641 | 75 | 211 | 5.0 | 12.0 | 0.00 | 0.00 | 0.00 | 19 | 1005.7 |
| 20260504204613 | 75 | 208 | 6.0 | 11.0 | 0.00 | 0.00 | 0.00 | 18 | 1005.9 |
| 20260504203620 | 75 | 202 | 8.0 | 14.0 | 0.00 | 0.00 | 0.00 | 21 | 1006.0 |
| 20260504202629 | 75 | 178 | 7.0 | 15.0 | 0.00 | 0.00 | 0.00 | 20 | 1006.0 |
| 20260504201615 | 75 | 186 | 9.0 | 15.0 | 0.00 | 0.00 | 0.00 | 20 | 1006.2 |
| 20260504200625 | 75 | 156 | 4.0 | 10.0 | 0.00 | 0.00 | 0.00 | 21 | 1006.2 |
| 20260504195626 | 75 | 168 | 4.0 | 10.0 | 0.00 | 0.00 | 0.00 | 21 | 1006.3 |
| 20260504194613 | 75 | 194 | 4.0 | 12.0 | 0.00 | 0.00 | 0.00 | 21 | 1006.6 |
| 20260504193640 | 74 | 184 | 5.0 | 9.0 | 0.00 | 0.00 | 0.00 | 22 | 1006.6 |
| 20260504192614 | 74 | 231 | 5.0 | 10.0 | 0.00 | 0.00 | 0.00 | 22 | 1006.8 |
| 20260504191622 | 74 | 231 | 5.0 | 11.0 | 0.00 | 0.00 | 0.00 | 21 | 1007.0 |
| 20260504190613 | 73 | 223 | 6.0 | 11.0 | 0.00 | 0.00 | 0.00 | 21 | 1007.1 |
| 20260504185615 | 73 | 257 | 3.0 | 11.0 | 0.00 | 0.00 | 0.00 | 22 | 1007.3 |
| 20260504184629 | 73 | 202 | 5.0 | 9.0 | 0.00 | 0.00 | 0.00 | 24 | 1007.5 |
| 20260504183620 | 72 | 179 | 5.0 | 11.0 | 0.00 | 0.00 | 0.00 | 24 | 1007.6 |
| 20260504182648 | 72 | 228 | 6.0 | 10.0 | 0.00 | 0.00 | 0.00 | 24 | 1007.7 |
| 20260504181615 | 71 | 159 | 6.0 | 11.0 | 0.00 | 0.00 | 0.00 | 25 | 1007.9 |
| 20260504180628 | 71 | 218 | 5.0 | 10.0 | 0.00 | 0.00 | 0.00 | 26 | 1008.0 |
| 20260504175614 | 71 | 72 | 2.0 | 12.0 | 0.00 | 0.00 | 0.00 | 26 | 1008.1 |
| 20260504174622 | 71 | 224 | 5.0 | 9.0 | 0.00 | 0.00 | 0.00 | 27 | 1008.1 |
| 20260504173631 | 70 | 219 | 4.0 | 10.0 | 0.00 | 0.00 | 0.00 | 29 | 1008.2 |
| 20260504172620 | 70 | 223 | 5.0 | 10.0 | 0.00 | 0.00 | 0.00 | 30 | 1008.3 |
| 20260504171613 | 70 | 238 | 4.0 | 8.0 | 0.00 | 0.00 | 0.00 | 29 | 1008.3 |
| 20260504170623 | 69 | 190 | 4.0 | 8.0 | 0.00 | 0.00 | 0.00 | 28 | 1008.4 |
| 20260504150631 | 55 | 53 | 3.0 | 5.0 | 0.00 | 0.00 | 0.00 | 37 | 1008.8 |
| 20260504140623 | 44 | 55 | 2.0 | 5.0 | 0.00 | 0.00 | 0.00 | 54 | 1008.9 |